<?xml version='1.0' encoding='UTF-8'?>
<gpx xmlns="http://www.topografix.com/GPX/1/1" creator="www.balnam.be" version="1.1" xmlns:xsi="http://www.w3.org/2001/XMLSchema-instance" xsi:schemaLocation="http://www.topografix.com/GPX/1/1 http://www.topografix.com/GPX/1/1/gpx.xsd">
<trk>
<name>lgebo13</name>
<cmt>s</cmt>
<desc>Boëlhe Sentier n°13 </desc>
<link href="https://chemins.be/boelhe/sentier/13"/><trkseg>
<trkpt lat="50.689010" lon="5.148953"><time>2026-05-02T22:34:48Z</time></trkpt>
<trkpt lat="50.688433" lon="5.150807"><time>2026-05-02T22:44:48Z</time></trkpt>
<trkpt lat="50.688547" lon="5.151966"><time>2026-05-02T22:54:48Z</time></trkpt>
<trkpt lat="50.688341" lon="5.153347"><time>2026-05-02T23:04:48Z</time></trkpt>
<trkpt lat="50.688428" lon="5.154850"><time>2026-05-02T23:14:48Z</time></trkpt>
</trkseg>
</trk>
<trk>
<name>lgebo16</name>
<cmt>q</cmt>
<desc>Boëlhe Sentier n°16 </desc>
<link href="https://chemins.be/boelhe/sentier/16"/><trkseg>
<trkpt lat="50.686195" lon="5.162907"><time>2026-05-02T22:34:48Z</time></trkpt>
<trkpt lat="50.685488" lon="5.161808"><time>2026-05-02T22:44:48Z</time></trkpt>
<trkpt lat="50.684713" lon="5.161546"><time>2026-05-02T22:54:48Z</time></trkpt>
<trkpt lat="50.682500" lon="5.157665"><time>2026-05-02T23:04:48Z</time></trkpt>
<trkpt lat="50.680548" lon="5.156283"><time>2026-05-02T23:14:48Z</time></trkpt>
</trkseg>
</trk>
<trk>
<name>lgebo17</name>
<cmt>q</cmt>
<desc>Boëlhe Sentier n°17 </desc>
<link href="https://chemins.be/boelhe/sentier/17"/><trkseg>
<trkpt lat="50.687832" lon="5.156985"><time>2026-05-02T22:34:48Z</time></trkpt>
<trkpt lat="50.686973" lon="5.157560"><time>2026-05-02T22:44:48Z</time></trkpt>
<trkpt lat="50.685488" lon="5.161851"><time>2026-05-02T22:54:48Z</time></trkpt>
<trkpt lat="50.684879" lon="5.162714"><time>2026-05-02T23:04:48Z</time></trkpt>
<trkpt lat="50.683642" lon="5.163834"><time>2026-05-02T23:14:48Z</time></trkpt>
<trkpt lat="50.682413" lon="5.166100"><time>2026-05-02T23:24:48Z</time></trkpt>
</trkseg>
</trk>
<trk>
<name>lgebo18</name>
<cmt>q</cmt>
<desc>Boëlhe Sentier n°18 </desc>
<link href="https://chemins.be/boelhe/sentier/18"/><trkseg>
<trkpt lat="50.685796" lon="5.161029"><time>2026-05-02T22:34:48Z</time></trkpt>
<trkpt lat="50.685350" lon="5.156146"><time>2026-05-02T22:44:48Z</time></trkpt>
<trkpt lat="50.684469" lon="5.154034"><time>2026-05-02T22:54:48Z</time></trkpt>
<trkpt lat="50.684246" lon="5.151571"><time>2026-05-02T23:04:48Z</time></trkpt>
<trkpt lat="50.684219" lon="5.149691"><time>2026-05-02T23:14:48Z</time></trkpt>
</trkseg>
</trk>
<trk>
<name>lgebo20</name>
<cmt>q</cmt>
<desc>Boëlhe Sentier n°20 </desc>
<link href="https://chemins.be/boelhe/sentier/20"/><trkseg>
<trkpt lat="50.686009" lon="5.170672"><time>2026-05-02T22:34:48Z</time></trkpt>
<trkpt lat="50.684259" lon="5.171534"><time>2026-05-02T22:44:48Z</time></trkpt>
</trkseg>
</trk>
<trk>
<name>lgebo21</name>
<cmt>q</cmt>
<desc>Boëlhe Sentier n°21 </desc>
<link href="https://chemins.be/boelhe/sentier/21"/><trkseg>
<trkpt lat="50.683785" lon="5.182918"><time>2026-05-02T22:34:48Z</time></trkpt>
<trkpt lat="50.684302" lon="5.184420"><time>2026-05-02T22:44:48Z</time></trkpt>
<trkpt lat="50.685099" lon="5.184349"><time>2026-05-02T22:54:48Z</time></trkpt>
<trkpt lat="50.685861" lon="5.186467"><time>2026-05-02T23:04:48Z</time></trkpt>
</trkseg>
</trk>
<trk>
<name>lgebo4</name>
<cmt>s</cmt>
<desc>Boëlhe Chemin n°4 </desc>
<link href="https://chemins.be/boelhe/chemin/4"/><trkseg>
<trkpt lat="50.682874" lon="5.177007"><time>2026-05-02T22:34:48Z</time></trkpt>
<trkpt lat="50.681927" lon="5.178516"><time>2026-05-02T22:44:48Z</time></trkpt>
</trkseg>
</trk>
<trk>
<name>lgebo5</name>
<cmt>s</cmt>
<desc>Boëlhe Chemin n°5 Rue de la Belle Vue</desc>
<link href="https://chemins.be/boelhe/chemin/5"/><trkseg>
<trkpt lat="50.691108" lon="5.174483"><time>2026-05-02T22:34:48Z</time></trkpt>
<trkpt lat="50.689575" lon="5.175239"><time>2026-05-02T22:44:48Z</time></trkpt>
<trkpt lat="50.687976" lon="5.174878"><time>2026-05-02T22:54:48Z</time></trkpt>
<trkpt lat="50.686050" lon="5.175623"><time>2026-05-02T23:04:48Z</time></trkpt>
<trkpt lat="50.684703" lon="5.175792"><time>2026-05-02T23:14:48Z</time></trkpt>
</trkseg></trk>
<trk>
<name>lgebo5</name>
<cmt>v</cmt>
<desc>Boëlhe Chemin n°5 Rue de la Belle Vue</desc>
<link href="https://chemins.be/boelhe/chemin/5"/><trkseg>
<trkpt lat="50.684703" lon="5.175792"><time>2026-05-02T23:14:48Z</time></trkpt>
<trkpt lat="50.682771" lon="5.176300"><time>2026-05-02T23:24:48Z</time></trkpt>
</trkseg></trk>
<trk>
<name>lgebo5</name>
<cmt>r</cmt>
<desc>Boëlhe Chemin n°5 Rue de la Belle Vue</desc>
<link href="https://chemins.be/boelhe/chemin/5"/><trkseg>
<trkpt lat="50.682771" lon="5.176300"><time>2026-05-02T23:24:48Z</time></trkpt>
<trkpt lat="50.682717" lon="5.175964"><time>2026-05-02T23:34:48Z</time></trkpt>
<trkpt lat="50.682389" lon="5.175903"><time>2026-05-02T23:44:48Z</time></trkpt>
</trkseg></trk>
<trk>
<name>lgebo5</name>
<cmt>d</cmt>
<desc>Boëlhe Chemin n°5 Rue de la Belle Vue</desc>
<link href="https://chemins.be/boelhe/chemin/5"/><trkseg>
<trkpt lat="50.682389" lon="5.175903"><time>2026-05-02T23:44:48Z</time></trkpt>
<trkpt lat="50.681289" lon="5.175886"><time>2026-05-02T23:54:48Z</time></trkpt>
<trkpt lat="50.679860" lon="5.176266"><time>2026-05-03T00:04:48Z</time></trkpt>
</trkseg>
</trk>
<trk>
<name>lgebo6</name>
<cmt>s</cmt>
<desc>Boëlhe Chemin n°6 </desc>
<link href="https://chemins.be/boelhe/chemin/6"/><trkseg>
<trkpt lat="50.683083" lon="5.177829"><time>2026-05-02T22:34:48Z</time></trkpt>
<trkpt lat="50.683491" lon="5.177793"><time>2026-05-02T22:44:48Z</time></trkpt>
<trkpt lat="50.684628" lon="5.179574"><time>2026-05-02T22:54:48Z</time></trkpt>
<trkpt lat="50.688883" lon="5.183651"><time>2026-05-02T23:04:48Z</time></trkpt>
</trkseg>
</trk>
<trk>
<name>lgebo7</name>
<cmt>s</cmt>
<desc>Boëlhe Chemin n°7 </desc>
<link href="https://chemins.be/boelhe/chemin/7"/><trkseg>
<trkpt lat="50.690083" lon="5.181942"><time>2026-05-02T22:34:48Z</time></trkpt>
<trkpt lat="50.687072" lon="5.186019"><time>2026-05-02T22:44:48Z</time></trkpt>
</trkseg>
</trk>
<trk>
<name>lgebo8</name>
<cmt>r</cmt>
<desc>Boëlhe Chemin n°8 Rue d'Abolens</desc>
<link href="https://chemins.be/boelhe/chemin/8"/><trkseg>
<trkpt lat="50.684560" lon="5.149172"><time>2026-05-02T22:34:48Z</time></trkpt>
<trkpt lat="50.681395" lon="5.153892"><time>2026-05-02T22:44:48Z</time></trkpt>
<trkpt lat="50.680037" lon="5.157321"><time>2026-05-02T22:54:48Z</time></trkpt>
</trkseg></trk>
<trk>
<name>lgebo8</name>
<cmt>v</cmt>
<desc>Boëlhe Chemin n°8 Rue d'Abolens</desc>
<link href="https://chemins.be/boelhe/chemin/8"/><trkseg>
<trkpt lat="50.680037" lon="5.157321"><time>2026-05-02T22:54:48Z</time></trkpt>
<trkpt lat="50.678894" lon="5.158974"><time>2026-05-02T23:04:48Z</time></trkpt>
</trkseg>
</trk>
<trk>
<name>lgeboi1</name>
<cmt>v</cmt>
<desc>Boëlhe Chemin n°i1 </desc>
<link href="https://chemins.be/boelhe/chemin/i1"/><trkseg>
<trkpt lat="50.683755" lon="5.182632"><time>2026-05-02T22:34:48Z</time></trkpt>
<trkpt lat="50.684385" lon="5.182250"><time>2026-05-02T22:44:48Z</time></trkpt>
<trkpt lat="50.685212" lon="5.181999"><time>2026-05-02T22:54:48Z</time></trkpt>
<trkpt lat="50.687335" lon="5.181259"><time>2026-05-02T23:04:48Z</time></trkpt>
</trkseg>
</trk>
</gpx>